Location: Newark
(16.3678°N, 77.8722°E)
Time: 00:02:36
(UTC+00:00)

S-56A Canister/Altair - Pass Details

Date: 12 December 2019
Orbit: 634 x 2498 km, 38.9° (Epoch: 24 January)

Event Time Altitude Azimuth Distance (km) Brightness Sun altitude
Rises 07:01:07 0° 295° (WNW) 6,019 12.0 50.3°
Reaches altitude 10° 07:06:02 10° 307° (NW) 5,120 11.6 50.1°
Maximum altitude 07:18:06 28° 0° (N) 3,816 11.0 49.6°
Drops below altitude 10° 07:29:09 10° 54° (NE) 4,679 11.3 48.9°
Sets 07:33:22 0° 66° (ENE) 5,435 11.6 48.6°
